Location: Bergnershof
(48.9468°N, 10.9431°E)
Time: 21:54:53
(UTC+00:00)

SJ-6B - Pass Details

Date: 03 March 2021
Orbit: 509 x 581 km, 97.6° (Epoch: 13 April)

Event Time Altitude Azimuth Distance (km) Brightness Sun altitude
Exits shadow 17:47:27 - 109° (ESE) 1,982 5.1 -8.1°
Reaches altitude 10° 17:47:46 10° 106° (ESE) 1,887 4.9 -8.2°
Maximum altitude 17:50:36 18° 62° (ENE) 1,422 4.4 -8.6°
Drops below altitude 10° 17:53:24 10° 19° (NNE) 1,875 5.4 -9.1°
Sets 17:56:02 0° 1° (N) 2,764 6.4 -9.5°
